Schneifelwetter: Wetterstation Hallschlag, 537 m . NN
Wetterdaten: Donnerstag, 16.11.2006
Datum Zeit Temp. A. Temp. 2 Feuchte A. Luftdruck Regen Wind Richtung Richtung Sonnenschein Helligkeit T Regen Taupunkt Windchill
16.11.2006 00:00 9,4 C 8,9 C 90 % 1008 hPa 0,0 l/m 28,8 km/h (4 Bft) S-SW45 205 0 min 0 lux 0,00 min 7,8 C 0,1 C
16.11.2006 00:15 9,4 C 8,8 C 90 % 1008 hPa 0,0 l/m 32,1 km/h (5 Bft) S-SW45 210 0 min 0 lux 0,00 min 7,8 C -0,6 C
16.11.2006 00:30 9,2 C 8,8 C 90 % 1008 hPa 0,0 l/m 35,9 km/h (5 Bft) S-SW45 205 0 min 0 lux 0,00 min 7,6 C -1,6 C
16.11.2006 00:46 9,2 C 8,7 C 90 % 1008 hPa 0,0 l/m 28,5 km/h (4 Bft) SW67.5 220 0 min 0 lux 0,00 min 7,6 C -0,1 C
16.11.2006 01:01 9,3 C 8,8 C 90 % 1007 hPa 0,0 l/m 39,3 km/h (6 Bft) SW45 225 0 min 0 lux 0,00 min 7,7 C -2,0 C
16.11.2006 01:16 9,5 C 9,0 C 91 % 1007 hPa 0,0 l/m 34,3 km/h (5 Bft) S-SW22.5 205 0 min 0 lux 0,00 min 8,1 C -0,9 C
16.11.2006 01:31 9,6 C 9,1 C 90 % 1007 hPa 0,0 l/m 41,5 km/h (6 Bft) SW45 215 0 min 0 lux 0,00 min 8,0 C -1,9 C
16.11.2006 01:45 9,4 C 9,0 C 90 % 1007 hPa 0,0 l/m 32,0 km/h (5 Bft) SW45 215 0 min 0 lux 0,00 min 7,8 C -0,6 C
16.11.2006 02:00 9,2 C 8,8 C 90 % 1007 hPa 0,0 l/m 31,0 km/h (5 Bft) S-SW45 205 0 min 0 lux 0,00 min 7,6 C -0,7 C
16.11.2006 02:15 9,3 C 8,8 C 90 % 1007 hPa 0,0 l/m 33,0 km/h (5 Bft) S-SW45 205 0 min 0 lux 0,00 min 7,7 C -0,9 C
16.11.2006 02:30 9,4 C 8,9 C 90 % 1007 hPa 0,0 l/m 42,4 km/h (6 Bft) S-SW45 200 0 min 0 lux 0,00 min 7,8 C -2,3 C
16.11.2006 02:45 9,5 C 9,0 C 91 % 1007 hPa 0,0 l/m 31,7 km/h (5 Bft) S-SW45 205 0 min 0 lux 0,00 min 8,1 C -0,4 C
16.11.2006 03:00 9,5 C 9,1 C 91 % 1007 hPa 0,0 l/m 30,9 km/h (5 Bft) S-SW45 205 0 min 0 lux 0,00 min 8,1 C -0,2 C
16.11.2006 03:15 9,5 C 9,1 C 91 % 1007 hPa 0,0 l/m 31,0 km/h (5 Bft) S-SW45 195 0 min 0 lux 0,00 min 8,1 C -0,3 C
16.11.2006 03:30 9,7 C 9,3 C 91 % 1006 hPa 0,0 l/m 40,9 km/h (6 Bft) S-SW45 210 0 min 0 lux 0,00 min 8,3 C -1,7 C
16.11.2006 03:45 9,8 C 9,4 C 91 % 1006 hPa 0,0 l/m 39,1 km/h (6 Bft) S-SW45 200 0 min 0 lux 0,00 min 8,4 C -1,3 C
16.11.2006 04:00 9,9 C 9,5 C 90 % 1006 hPa 0,0 l/m 39,6 km/h (6 Bft) S-SW45 195 0 min 0 lux 0,00 min 8,3 C -1,2 C
16.11.2006 04:15 9,9 C 9,5 C 90 % 1006 hPa 0,0 l/m 37,3 km/h (5 Bft) S45 190 0 min 0 lux 0,00 min 8,3 C -0,8 C
16.11.2006 04:30 9,9 C 9,6 C 90 % 1006 hPa 0,0 l/m 40,0 km/h (6 Bft) S-SW45 205 0 min 0 lux 0,00 min 8,3 C -1,3 C
16.11.2006 04:45 9,9 C 9,6 C 90 % 1006 hPa 0,0 l/m 39,8 km/h (6 Bft) S-SW45 205 0 min 0 lux 0,00 min 8,3 C -1,2 C
16.11.2006 05:00 9,9 C 9,5 C 89 % 1006 hPa 0,0 l/m 37,2 km/h (5 Bft) S-SW45 200 0 min 0 lux 0,00 min 8,2 C -0,8 C
16.11.2006 05:15 9,8 C 9,4 C 90 % 1006 hPa 0,0 l/m 34,5 km/h (5 Bft) S-SW45 200 0 min 0 lux 0,00 min 8,2 C -0,5 C
16.11.2006 05:30 9,6 C 9,2 C 90 % 1006 hPa 0,0 l/m 31,1 km/h (5 Bft) S22.5 185 0 min 0 lux 0,00 min 8,0 C -0,1 C
16.11.2006 05:45 9,5 C 9,1 C 90 % 1006 hPa 0,0 l/m 31,5 km/h (5 Bft) S-SW45 195 0 min 0 lux 0,00 min 7,9 C -0,4 C
16.11.2006 06:00 9,5 C 9,0 C 90 % 1006 hPa 0,0 l/m 30,3 km/h (5 Bft) S-SW22.5 195 0 min 0 lux 0,00 min 7,9 C -0,1 C
16.11.2006 06:15 9,4 C 8,9 C 90 % 1006 hPa 0,0 l/m 31,1 km/h (5 Bft) S-SW45 210 0 min 0 lux 0,00 min 7,8 C -0,4 C
16.11.2006 06:30 9,2 C 8,7 C 90 % 1006 hPa 0,0 l/m 23,3 km/h (4 Bft) SW67.5 230 0 min 0 lux 0,00 min 7,6 C 1,2 C
16.11.2006 06:45 8,9 C 8,5 C 90 % 1006 hPa 0,0 l/m 22,8 km/h (4 Bft) W-SW45 240 0 min 0 lux 0,00 min 7,4 C 1,0 C
16.11.2006 07:00 8,8 C 8,3 C 90 % 1006 hPa 0,0 l/m 27,2 km/h (4 Bft) S-SW45 200 0 min 0 lux 0,00 min 7,3 C -0,4 C
16.11.2006 07:15 8,8 C 8,3 C 90 % 1006 hPa 0,0 l/m 23,2 km/h (4 Bft) S-SW45 205 0 min 0 lux 0,00 min 7,3 C 0,7 C
16.11.2006 07:30 8,8 C 8,3 C 90 % 1006 hPa 0,0 l/m 27,4 km/h (4 Bft) S-SW45 210 0 min 289 lux 0,00 min 7,3 C -0,4 C
16.11.2006 07:45 8,8 C 8,3 C 90 % 1006 hPa 0,0 l/m 18,5 km/h (3 Bft) S-SW45 205 0 min 474 lux 0,00 min 7,3 C 2,3 C
16.11.2006 08:00 8,8 C 8,3 C 90 % 1006 hPa 0,0 l/m 24,6 km/h (4 Bft) SW45 225 0 min 855 lux 0,00 min 7,3 C 0,3 C
16.11.2006 08:15 8,9 C 8,3 C 89 % 1006 hPa 0,0 l/m 24,0 km/h (4 Bft) S-SW45 205 0 min 2,08 klux 0,00 min 7,2 C 0,6 C
16.11.2006 08:30 8,9 C 8,4 C 89 % 1006 hPa 0,0 l/m 26,0 km/h (4 Bft) SW45 230 0 min 3,17 klux 0,00 min 7,2 C 0,1 C
16.11.2006 08:45 9,1 C 8,5 C 88 % 1006 hPa 0,0 l/m 23,3 km/h (4 Bft) SW45 225 0 min 4,33 klux 0,00 min 7,2 C 1,1 C
16.11.2006 09:00 9,0 C 8,4 C 88 % 1006 hPa 0,0 l/m 23,3 km/h (4 Bft) SW67.5 220 0 min 6,54 klux 0,00 min 7,1 C 1,0 C
16.11.2006 09:15 9,1 C 8,4 C 88 % 1006 hPa 0,0 l/m 18,4 km/h (3 Bft) SW45 215 0 min 29,4 klux 0,00 min 7,2 C 2,7 C
16.11.2006 09:30 9,9 C 9,3 C 87 % 1006 hPa 0,0 l/m 21,3 km/h (4 Bft) S-SW45 205 0 min 33,4 klux 0,00 min 7,8 C 2,7 C
16.11.2006 09:45 10,7 C 10,5 C 85 % 1006 hPa 0,0 l/m 17,8 km/h (3 Bft) S45 185 0 min 38,2 klux 0,00 min 8,3 C 4,9 C
16.11.2006 10:00 11,2 C 10,9 C 83 % 1007 hPa 0,0 l/m 25,5 km/h (4 Bft) W-SW67.5 245 0 min 42,0 klux 0,00 min 8,4 C 3,3 C
16.11.2006 10:15 11,8 C 12,5 C 82 % 1007 hPa 0,0 l/m 34,0 km/h (5 Bft) W-SW45 245 15 min 51,1 klux 0,00 min 8,8 C 2,5 C
16.11.2006 10:31 11,9 C 13,1 C 81 % 1006 hPa 0,0 l/m 29,4 km/h (5 Bft) S-SW67.5 200 0 min 37,5 klux 0,00 min 8,7 C 3,4 C
16.11.2006 10:45 12,3 C 13,9 C 81 % 1007 hPa 0,0 l/m 26,4 km/h (4 Bft) W-SW45 240 14 min 49,0 klux 0,00 min 9,1 C 4,6 C
16.11.2006 11:00 12,5 C 14,4 C 79 % 1006 hPa 0,0 l/m 29,5 km/h (5 Bft) SW45 220 15 min 46,0 klux 0,00 min 9,0 C 4,3 C
16.11.2006 11:15 12,5 C 13,8 C 79 % 1006 hPa 0,0 l/m 27,3 km/h (4 Bft) W-SW45 245 0 min 45,0 klux 0,00 min 9,0 C 4,7 C
16.11.2006 11:30 12,6 C 14,6 C 80 % 1006 hPa 0,0 l/m 22,6 km/h (4 Bft) W-SW45 245 15 min 57,0 klux 0,00 min 9,2 C 5,9 C
16.11.2006 11:45 13,1 C 15,8 C 79 % 1006 hPa 0,0 l/m 17,9 km/h (3 Bft) SW45 225 15 min 51,7 klux 0,00 min 9,5 C 7,9 C
16.11.2006 12:00 13,0 C 15,8 C 78 % 1006 hPa 0,0 l/m 19,1 km/h (3 Bft) S-SW45 195 15 min 52,6 klux 0,00 min 9,3 C 7,4 C
16.11.2006 12:15 13,3 C 16,6 C 78 % 1006 hPa 0,0 l/m 31,6 km/h (5 Bft) SW45 215 15 min 57,2 klux 0,00 min 9,5 C 5,0 C
16.11.2006 12:30 13,2 C 16,5 C 77 % 1006 hPa 0,0 l/m 26,7 km/h (4 Bft) S22.5 175 15 min 57,7 klux 0,00 min 9,3 C 5,8 C
16.11.2006 12:45 13,4 C 16,9 C 77 % 1005 hPa 0,0 l/m 25,7 km/h (4 Bft) S-SW67.5 195 15 min 53,4 klux 0,00 min 9,5 C 6,3 C
16.11.2006 13:00 13,5 C 17,0 C 76 % 1005 hPa 0,0 l/m 21,4 km/h (4 Bft) S45 175 15 min 53,5 klux 0,00 min 9,4 C 7,4 C
16.11.2006 13:15 13,6 C 16,9 C 76 % 1005 hPa 0,0 l/m 21,6 km/h (4 Bft) S45 185 0 min 44,2 klux 0,00 min 9,4 C 7,5 C
16.11.2006 13:30 13,6 C 16,6 C 76 % 1005 hPa 0,0 l/m 28,1 km/h (4 Bft) S45 185 0 min 38,4 klux 0,00 min 9,4 C 6,1 C
16.11.2006 13:45 13,9 C 15,9 C 75 % 1005 hPa 0,0 l/m 26,4 km/h (4 Bft) S22.5 175 0 min 43,9 klux 0,00 min 9,5 C 6,8 C
16.11.2006 14:00 14,2 C 16,2 C 74 % 1005 hPa 0,0 l/m 29,3 km/h (5 Bft) S22.5 175 15 min 46,2 klux 0,00 min 9,6 C 6,7 C
16.11.2006 14:15 14,4 C 16,6 C 74 % 1005 hPa 0,0 l/m 25,3 km/h (4 Bft) S22.5 180 0 min 44,2 klux 0,00 min 9,8 C 7,7 C
16.11.2006 14:30 14,6 C 17,7 C 74 % 1004 hPa 0,0 l/m 23,6 km/h (4 Bft) S45 180 0 min 44,1 klux 0,00 min 10,0 C 8,4 C
16.11.2006 14:45 14,8 C 18,4 C 73 % 1004 hPa 0,0 l/m 24,0 km/h (4 Bft) S22.5 180 0 min 42,5 klux 0,00 min 10,0 C 8,5 C
16.11.2006 15:00 14,7 C 17,9 C 73 % 1004 hPa 0,0 l/m 25,4 km/h (4 Bft) S45 185 0 min 34,4 klux 0,00 min 9,9 C 8,1 C
16.11.2006 15:15 14,6 C 17,8 C 73 % 1004 hPa 0,0 l/m 22,1 km/h (4 Bft) S45 185 0 min 17,4 klux 0,00 min 9,8 C 8,7 C
16.11.2006 15:31 14,4 C 17,7 C 74 % 1004 hPa 0,0 l/m 15,2 km/h (3 Bft) S45 185 0 min 16,4 klux 0,00 min 9,8 C 10,4 C
16.11.2006 15:45 14,0 C 16,2 C 74 % 1004 hPa 0,0 l/m 20,4 km/h (4 Bft) S22.5 180 0 min 12,1 klux 0,00 min 9,4 C 8,3 C
16.11.2006 16:00 13,5 C 14,7 C 76 % 1004 hPa 0,0 l/m 20,0 km/h (4 Bft) S22.5 185 0 min 4,94 klux 0,00 min 9,4 C 7,8 C
16.11.2006 16:15 13,2 C 13,9 C 76 % 1004 hPa 0,0 l/m 18,5 km/h (3 Bft) S45 185 0 min 3,14 klux 0,00 min 9,1 C 7,9 C
16.11.2006 16:30 13,2 C 13,3 C 76 % 1004 hPa 0,0 l/m 25,9 km/h (4 Bft) S22.5 185 0 min 1,48 klux 0,00 min 9,1 C 6,0 C
16.11.2006 16:45 12,9 C 12,7 C 77 % 1004 hPa 0,0 l/m 16,5 km/h (3 Bft) S67.5 180 0 min 889 lux 0,00 min 9,0 C 8,1 C
16.11.2006 17:00 12,8 C 12,5 C 77 % 1004 hPa 0,0 l/m 17,6 km/h (3 Bft) S22.5 180 0 min 297 lux 0,00 min 8,9 C 7,6 C
16.11.2006 17:15 12,7 C 12,4 C 77 % 1004 hPa 0,0 l/m 24,5 km/h (4 Bft) S22.5 185 0 min 62 lux 0,00 min 8,8 C 5,6 C
16.11.2006 17:30 12,5 C 12,1 C 78 % 1004 hPa 0,0 l/m 17,0 km/h (3 Bft) S22.5 175 0 min 15 lux 0,00 min 8,8 C 7,5 C
16.11.2006 17:45 12,3 C 11,9 C 78 % 1004 hPa 0,0 l/m 19,4 km/h (3 Bft) S-SO45 165 0 min 6 lux 0,00 min 8,6 C 6,4 C
16.11.2006 18:00 12,2 C 11,8 C 79 % 1004 hPa 0,0 l/m 21,3 km/h (4 Bft) S45 175 0 min 4 lux 0,00 min 8,7 C 5,8 C
16.11.2006 18:15 12,2 C 11,8 C 79 % 1004 hPa 0,0 l/m 18,8 km/h (3 Bft) S22.5 170 0 min 3 lux 0,00 min 8,7 C 6,5 C
16.11.2006 18:30 12,2 C 11,7 C 78 % 1004 hPa 0,0 l/m 21,5 km/h (4 Bft) S22.5 170 0 min 1 lux 0,00 min 8,5 C 5,7 C
16.11.2006 18:45 12,1 C 11,7 C 79 % 1004 hPa 0,0 l/m 21,3 km/h (4 Bft) S45 180 0 min 0 lux 0,00 min 8,6 C 5,6 C
16.11.2006 19:00 12,2 C 11,8 C 78 % 1004 hPa 0,0 l/m 23,2 km/h (4 Bft) S22.5 180 0 min 0 lux 0,00 min 8,5 C 5,3 C
16.11.2006 19:15 12,2 C 11,8 C 78 % 1004 hPa 0,0 l/m 24,4 km/h (4 Bft) S22.5 180 0 min 0 lux 0,00 min 8,5 C 5,0 C
16.11.2006 19:30 12,3 C 11,9 C 78 % 1004 hPa 0,0 l/m 20,5 km/h (4 Bft) S22.5 180 0 min 0 lux 0,00 min 8,6 C 6,1 C
16.11.2006 19:45 12,2 C 11,7 C 79 % 1004 hPa 0,0 l/m 20,0 km/h (4 Bft) S45 185 0 min 0 lux 0,00 min 8,7 C 6,1 C
16.11.2006 20:00 12,1 C 11,5 C 80 % 1004 hPa 0,0 l/m 27,3 km/h (4 Bft) S22.5 180 0 min 0 lux 0,00 min 8,8 C 4,2 C
16.11.2006 20:16 11,9 C 11,0 C 82 % 1004 hPa 0,0 l/m 29,9 km/h (5 Bft) S45 185 0 min 0 lux 0,00 min 8,9 C 3,3 C
16.11.2006 20:30 11,7 C 10,8 C 83 % 1004 hPa 0,3 l/m 27,1 km/h (4 Bft) S22.5 180 0 min 0 lux 14,00 min 8,9 C 3,7 C
16.11.2006 20:45 11,6 C 10,9 C 84 % 1004 hPa 0,0 l/m 30,1 km/h (5 Bft) S22.5 175 0 min 0 lux 0,00 min 9,0 C 2,9 C
16.11.2006 21:00 11,6 C 10,9 C 84 % 1004 hPa 0,0 l/m 24,9 km/h (4 Bft) S22.5 180 0 min 0 lux 0,00 min 9,0 C 4,0 C
16.11.2006 21:15 11,4 C 10,7 C 84 % 1004 hPa 0,0 l/m 21,5 km/h (4 Bft) S22.5 175 0 min 0 lux 0,00 min 8,8 C 4,7 C
16.11.2006 21:30 11,3 C 10,7 C 84 % 1004 hPa 0,0 l/m 20,5 km/h (4 Bft) S22.5 190 0 min 0 lux 0,00 min 8,7 C 4,8 C
16.11.2006 21:45 11,4 C 10,8 C 84 % 1004 hPa 0,0 l/m 25,3 km/h (4 Bft) S45 185 0 min 0 lux 0,00 min 8,8 C 3,7 C
16.11.2006 22:00 11,5 C 11,0 C 84 % 1004 hPa 0,0 l/m 25,4 km/h (4 Bft) S-SW45 195 0 min 0 lux 0,00 min 8,9 C 3,8 C
16.11.2006 22:15 11,7 C 11,4 C 83 % 1004 hPa 0,0 l/m 27,5 km/h (4 Bft) SW45 215 0 min 0 lux 0,00 min 8,9 C 3,6 C
16.11.2006 22:30 11,8 C 11,5 C 82 % 1004 hPa 0,0 l/m 23,4 km/h (4 Bft) SW45 215 0 min 0 lux 0,00 min 8,8 C 4,7 C
16.11.2006 22:45 11,8 C 11,6 C 82 % 1004 hPa 0,0 l/m 23,0 km/h (4 Bft) S-SW45 195 0 min 0 lux 0,00 min 8,8 C 4,8 C
16.11.2006 23:00 11,8 C 11,6 C 82 % 1004 hPa 0,0 l/m 22,8 km/h (4 Bft) S22.5 190 0 min 0 lux 0,00 min 8,8 C 4,8 C
16.11.2006 23:15 11,7 C 11,5 C 82 % 1005 hPa 0,0 l/m 23,8 km/h (4 Bft) S-SW45 200 0 min 0 lux 0,00 min 8,7 C 4,4 C
16.11.2006 23:30 11,7 C 11,4 C 82 % 1004 hPa 0,0 l/m 20,8 km/h (4 Bft) S67.5 190 0 min 0 lux 0,00 min 8,7 C 5,2 C
16.11.2006 23:45 11,6 C 11,3 C 83 % 1004 hPa 0,0 l/m 22,2 km/h (4 Bft) S22.5 185 0 min 0 lux 0,00 min 8,8 C 4,7 C
16.11.2006 23:54 11,4 C 11,1 C 84 % 1005 hPa 0,0 l/m 20,2 km/h (4 Bft) S22.5 185 0 min 0 lux 0,00 min 8,8 C 5,0 C
_ Min-Zeit 07:00 07:00 14:45 14:30 - 15:31 - - - - - 09:00 02:30
Minimum _ 8,8 C 8,3 C 73 % 1004 hPa - 15,2 km/h (3 Bft) - - - - - 7,1 C -2,3 C
_ Max-Zeit 14:45 14:45 01:16 00:00 20:30 02:30 - - 10:15 12:30 20:30 14:30 15:31
Maximum _ 14,8 C 18,4 C 91 % 1008 hPa 0,3 l/m 42,4 km/h
S-SW (6 Bft)
- - 15 min 57,7 klux 14,00 min 10,0 C 10,4 C
Durchschnitt _ 11,3 C 11,6 C 83 % 1006 hPa #0,3 l/m 26,5 km/h (4 Bft) S - #2:44 h 12,0 klux #14 min. 8,5 C 3,4 C